This is the latest recevied weather packets stored in our database for station/object PY2UEP-1. If no packets are shown the sender has not sent any weather packets the latest 10 day(s).
| Time | Temp. | Humidity | Pressure | Rain* | Wind** | Luminosity | Snow |
|---|---|---|---|---|---|---|---|
| 1787968202 | 24.44° C | 62% | 1013.5 hPa | 0 mm | - | - | - |
| 1787967903 | 24.44° C | 65% | 1013.5 hPa | 0 mm | - | - | - |
| 1787967602 | 24.44° C | 64% | 1013.7 hPa | 0 mm | - | - | - |
| 1787967302 | 24.44° C | 62% | 1013.7 hPa | 0 mm | - | - | - |
| 1787967002 | 24.44° C | 62% | 1013.5 hPa | 0 mm | - | - | - |
| 1787966702 | 24.44° C | 61% | 1013.5 hPa | 0 mm | - | - | - |
| 1787966402 | 24.44° C | 65% | 1013.5 hPa | 0 mm | - | - | - |
| 1787966102 | 24.44° C | 62% | 1013.5 hPa | 0 mm | - | - | - |
| 1787965802 | 24.44° C | 64% | 1013.5 hPa | 0 mm | - | - | - |
| 1787965502 | 24.44° C | 63% | 1013.5 hPa | 0 mm | - | - | - |
| 1787965202 | 24.44° C | 63% | 1013.5 hPa | 0 mm | - | - | - |
| 1787964902 | 24.44° C | 63% | 1013.5 hPa | 0 mm | - | - | - |
| 1787964602 | 24.44° C | 63% | 1013.5 hPa | 0 mm | - | - | - |
| 1787964303 | 24.44° C | 65% | 1013.4 hPa | 0 mm | - | - | - |
| 1787964002 | 24.44° C | 65% | 1013.4 hPa | 0 mm | - | - | - |
| 1787963702 | 24.44° C | 64% | 1013.5 hPa | 0 mm | - | - | - |
| 1787963402 | 24.44° C | 63% | 1013.4 hPa | 0 mm | - | - | - |
| 1787963102 | 24.44° C | 64% | 1013.2 hPa | 0 mm | - | - | - |
| 1787962802 | 24.44° C | 66% | 1013.2 hPa | 0 mm | - | - | - |
| 1787962502 | 24.44° C | 66% | 1013.2 hPa | 0 mm | - | - | - |
| 1787962202 | 24.44° C | 67% | 1013.2 hPa | 0 mm | - | - | - |
| 1787961902 | 24.44° C | 67% | 1012.9 hPa | 0 mm | - | - | - |
| 1787961602 | 24.44° C | 66% | 1013.2 hPa | 0 mm | - | - | - |
| 1787961302 | 24.44° C | 66% | 1013.2 hPa | 0 mm | - | - | - |
| 1787961002 | 25° C | 66% | 1013.2 hPa | 0 mm | - | - | - |
* Rain since midnight (hover to see other rain measurements)
** Current wind speed in m/s (hover to see current wind gust speed)